Погода в Архаре

Погода в Архаре : погода сейчас, прогноз погоды и архив. Всё, что Вы хотите узнать о погоде в Архаре!

Хотите узнать прогноз погоды в Архаре? Тогда Вам сюда: Погода в Архаре

Поиск расширенной информации на нашем сайте:

Другие новости

Новости СМИ2

Главная страница сайта

Новости сайта

03.07.2017

Напоминаем, что на нашем специализированном сайте Метеоцентр.Азия вы можете получить высокодетализированные автоматические прогнозы погоды по пунктам России, СНГ и мира в авиационном формате (включающие направление и скорость ветра, видимость, явления погоды, количество и форму облачности, нижнюю и верхнюю границу облачности).

Рекомендуем: Описание офигенное радио на нашем сайте.

Погода в Архаре - сегодня

Время (UTC), дата Ветер
(°,м/с) 
Видим.   Явления Облачность Т
(°С)
Тd
(°С)
f(%) Тe
(°С)
Pmin
(гПа)
dP
(гПа)
Po
(мм)
O2
(г/м3)
Тmin Tmax R s Состояние
почвы
12 18.02.18 тихо ()   20000 м    ясно 
-23.5 -27.2 72 -24  1021  0.1  752  333    -11.7       
15 18.02.18 тихо ()   20000 м    ясно 
-25.5 -29 73 -26  1020.9  -0.2  752  336           
18 18.02.18 тихо ()   20000 м    ясно 
-28.3 -32.3 68 -28  1020.7  -0.5  751  340           
21 18.02.18 тихо ()   20000 м    ясно 
-29.5 -33.5 68 -30  1020.4  -0.4  751  341           
03 19.02.18 280 (З) 20000 м    ясно 
-15.7 -24.7 46 -19  1019.1  -0.4  751  323           
06 19.02.18 280 (З) 20000 м    ясно 
-12.4 -24.5 36 -18  1017.5  -1.3  750  318           
09 19.02.18 320 (СЗ) 20000 м    8/3 1000 м кучево-дожд., верхняя 
[Cb cap|Ci fib]
-16.3 -25.5 45 -16  1018  0.2  750  323           
15 19.02.18 350 (С) 20000 м    10/0 верхняя 
[Ci fib]
-23.5 -26.6 76 -27  1018  -0.5  749  332           
18 19.02.18 330 (СЗ) 20000 м    10/0 верхняя 
[Ci fib]
-25.5 -29.2 71 -26  1018.1  749  335           
21 19.02.18 340 (С) 20000 м    ясно 
-28.5 -32.7 67 -29  1018.1  -0.3  749  339           
03 20.02.18 280 (З) 20000 м    ясно 
-18.2 -27.5 44 -23  1018.4  0.4  750  326           
06 20.02.18 290 (З) 20000 м    ясно 
-15.7 -26.9 38 -22  1017.9  -0.3  750  322           
09 20.02.18 300 (СЗ) 3{10}  20000 м    ясно 
-17.4 -26.2 46 -21  1018.7  0.7  750  325           
12 20.02.18 030 (СВ) 20000 м    ясно 
-23.4 -27.9 66 -24  1019.7  0.5  751  333    -15.5       
15 20.02.18 тихо ()   20000 м    ясно 
-28.7 -32.5 70 -29  1019.4  -0.7  750  340           
18 20.02.18 тихо ()   20000 м    ясно 
-28.6 -32.2 71 -29  1018.9  -0.5  750  339           
21 20.02.18 110 (В) 20000 м    ясно 
-31.2 -35.3 67 -32  1018.8  -0.3  750  343           
03 21.02.18 160 (Ю) 20000 м    ясно 
-15.3 -25 43 -18  1016.9  -0.2  749  321           
06 21.02.18 200 (Ю) 20000 м    ясно 
-11.8 -23.6 37 -12  1014.6  -2  748  316           
09 21.02.18 тихо ()   20000 м    10/0 средняя, верхняя 
[Ac trans|Ci fib]
-14.6 -24.8 42 -15  1014.4  -0.4  747  320           
15 21.02.18 060 (СВ) 20000 м    10/0 верхняя 
[Cs]
-21.2 -26.1 65 -22  1014.9  -0.5  747  328           
18 21.02.18 тихо ()   20000 м    10/0 верхняя 
[Ci fib]
-26.1 -29.6 72 -26  1014.9  -0.3  747  335           
21 21.02.18 100 (В) 20000 м    10/0 верхняя 
[Ci fib]
-26.9 -30.6 71 -28  1014.9  747  336           
00 22.02.18 тихо ()   4000 м  дымка  ясно 
-21.7 -26 68 -22  1015.7  1.1  748  329  -27.3      19  равномерный
сухой снег
100% 
03 22.02.18 250 (З) 20000 м    3/0 верхняя 
[Ci fib]
-14.8 -22.5 52 -15  1015.4  0.2  748  320           
Время (UTC), дата Ветер
(°,м/с) 
Видим.   Явления Облачность Т
(°С)
Тd
(°С)
f(%) Тe
(°С)
Pmin
(гПа)
dP
(гПа)
Po
(мм)
O2
(г/м3)
Тmin Tmax R s Состояние
почвы

Для получения пояснительной информации подведите курсор к названию столбца.

ПОГОДА в Архаре - архив

Всё, что Вы хотите узнать о погоде в Архаре - удобно и подробно!

Выберите нужную дату (начиная с 1 января 2015* года) и нажмите кнопку "Найти".
Будут отображены архивные сводки погоды по пункту Архара, начиная с указанной даты.


Отображать данные в формате CSV (для использования в таблицах Excel)


Внимание! Наш архив погоды предназначен исключительно для личного некоммерческого использования в познавательных целях. Если Вам необходимы официальные справки о состоянии погоды (для производственных, юридических, коммерческих и т.п. целей), обращайтесь в органы Росгидромета.

*Примечание: данная дата относится к архиву по метеостанциям СССР (Россия, СНГ, Балтия).
Архив по метеостанциям Зарубежной Европы и Азии (кроме Китая) хранится 10 дней, по другим регионам земного шара (Китай, Африка, Америка, Австралия, Океания) - 1 день.

Архара - район местоположения метеостанции


Название, широта, долгота, высота метеостанции:
Архара 49.4°ш. 130.1°д. 135 м над ур. моря [Российская Федерация]

Дополнительная информация

В oтличие oт бoльшинства пoгoдных сайтoв мы публикуем пoдрoбную метеoинфoрмацию в детальнoм прoфессиoнальнoм фoрмате.

Характеристики температуры и влажнoсти вoздуха измеряются на высoте 2 м в тени вдали oт зданий и деревьев.
Скoрoсть ветра измеряется на высoте 10 м (на урoвне рoста челoвека скoрoсть ветра ниже в 1.5-2 раза). Если метеoстанция нахoдится в гoрoде или в лесу, тo скoрoсть ветра занижена на 2-4 м/с пo сравнению с oткрытым местoм. Скoрoсть ветра над акватoриями крупных рек и oзёр, а также на вершинах хoлмoв на 2-5 м/с выше, чем в oбычных услoвиях.
Атмoсфернoе давление в разных тoчках местнoсти мoжет значительнo oтличаться oт давления на метеoстанции, в зависимoсти oт услoвий рельефа (при пoдъёме на 10 м давление пoнижается примернo на 1 мм рт.ст.).